Mount Holly, NJ

7:23 PM EST on December 07, 2019 (GMT -0500)
South Jersey Regional

Weather History for KVAY - October, 2019

Change the Weather History Date:

Friday, October 25, 2019

  Actual Average (WUND) Record (WUND)
Temperature  
Mean Temperature 54 °F -  
Max Temperature 66 °F - - (-1)
Min Temperature 42 °F - - (-1)
Degree Days  
Heating Degree Days 11    
Growing Degree Days 4 (Base 50)    
Moisture  
Dew Point 48 °F    
Average Humidity 82    
Maximum Humidity 96    
Minimum Humidity 60    
Precipitation  
Precipitation 0.00 in - - ()
Sea Level Pressure  
Sea Level Pressure 30.26 in    
Wind  
Wind Speed 0 mph (SW)    
Max Wind Speed 5 mph    
Max Gust Speed -    
Visibility 9 miles    
Events      
Averages and records for this station are not official NWS values.
T = Trace of Precipitation, MM = Missing Value Source: NWS Daily Summary

Daily Weather History Graph

Daily Weather History Graph

Search for Another Location

Airport or City:

Astronomy

Oct. 25, 2019 Rise Set
Actual Time 7:20 AM EDT 6:06 PM EDT
Civil Twilight 6:52 AM EDT 6:33 PM EDT
Nautical Twilight 6:20 AM EDT 7:05 PM EDT
Astronomical Twilight 5:49 AM EDT 7:36 PM EDT
Moon 4:00 AM EDT (10/25) 5:06 PM EDT (10/25)
Length of Visible Light 11h 41m
Length of Day
10h 45m
Waning Crescent, 9% of the Moon is Illuminated
Oct 25
Waning Crescent
Oct 27
New
Nov 4
First Quarter
Nov 12
Full
Nov 19
Last Quarter

Hourly Weather History & Observations

Time (EDT) Temp. Dew Point Humidity Pressure Visibility Wind Dir Wind Speed Gust Speed Precip Events Conditions
12:54 AM 46.9 °F 44.1 °F 90% 30.31 in 10.0 mi Calm Calm - N/A   Clear
1:54 AM 45.0 °F 42.1 °F 90% 30.30 in 10.0 mi Calm Calm - N/A   Clear
2:54 AM 44.1 °F 42.1 °F 93% 30.30 in 10.0 mi Calm Calm - N/A   Clear
3:54 AM 43.0 °F 41.0 °F 93% 30.30 in 4.0 mi Calm Calm - N/A   Clear
4:21 AM 42.1 °F 39.9 °F 92% 30.31 in 2.0 mi Calm Calm - N/A   Clear
4:29 AM 42.1 °F 39.9 °F 92% 30.31 in 10.0 mi Calm Calm - N/A   Clear
4:54 AM 42.1 °F 39.9 °F 92% 30.31 in 10.0 mi Calm Calm - N/A   Unknown
5:54 AM 42.1 °F 39.9 °F 92% 30.31 in 10.0 mi Calm Calm - N/A   Unknown
6:54 AM 42.1 °F 39.9 °F 92% 30.31 in - North - - N/A   Unknown
7:54 AM 42.1 °F 41.0 °F 96% 30.32 in 9.0 mi Calm Calm - N/A   Unknown
8:54 AM 46.9 °F 45.0 °F 93% 30.32 in 7.0 mi Calm Calm - N/A   Unknown
9:54 AM 54.0 °F 51.1 °F 90% 30.32 in 10.0 mi Calm Calm - N/A   Unknown
10:54 AM 60.1 °F 50.0 °F 69% 30.31 in 10.0 mi Calm Calm - N/A   Unknown
11:54 AM 63.0 °F 51.1 °F 65% 30.29 in 10.0 mi Calm Calm - N/A   Clear
12:54 PM 64.9 °F 52.0 °F 63% 30.26 in 10.0 mi Variable 3.5 mph - N/A   Clear
1:54 PM 66.0 °F 52.0 °F 60% 30.22 in 10.0 mi Variable 4.6 mph - N/A   Clear
2:54 PM 66.0 °F 53.1 °F 63% 30.21 in 10.0 mi Calm Calm - N/A   Scattered Clouds
4:54 PM 66.0 °F 53.1 °F 63% 30.18 in 10.0 mi SSW 3.5 mph - N/A   Clear
5:54 PM 62.1 °F 52.0 °F 70% 30.18 in 10.0 mi Calm Calm - N/A   Clear
6:54 PM 60.1 °F 54.0 °F 80% 30.18 in 10.0 mi Calm Calm - N/A   Partly Cloudy
7:54 PM 57.9 °F 53.1 °F 84% 30.18 in 10.0 mi Calm Calm - N/A   Clear
8:54 PM 59.0 °F 53.1 °F 81% 30.18 in 10.0 mi Calm Calm - N/A   Clear
9:54 PM 57.9 °F 53.1 °F 84% 30.19 in 10.0 mi Calm Calm - N/A   Clear
10:54 PM 57.0 °F 53.1 °F 87% 30.20 in 10.0 mi Calm Calm - N/A   Clear
11:54 PM 57.0 °F 53.1 °F 87% 30.19 in 10.0 mi SW 3.5 mph - N/A   Mostly Cloudy